Regional Weather Roundup
Issued by NWS

Home | Current Version | Previous Version | Text Only | Print | Product List | Glossary On
Versions: 1 2 3 4 5 6 7 8 9 10 11 12 13 14 15 16 17 18 19 20 21 22 23 24 25 26 27 28 29 30 31 32 33 34 35 36 37 38 39 40 41 42 43 44 45 46 47 48 49 50
079
ASUS44 KJAN 191503
RWRMS

MISSISSIPPI HOURLY WEATHER ROUNDUP
NATIONAL WEATHER SERVICE JACKSON MS
1000 AM CDT FRI SEP 19 2014

NOTE: "FAIR: INDICATES FEW OR NO CLOUDS BELOW 12,000 FEET WITH NO
SIGNIFICANT WEATHER AND/OR OBSTRUCTIONS TO VISIBILITY.

MSZ001>002-007>008-010>013-018>021-025>028-034>036-191600-
NORTHWEST MISSISSIPPI

CITY           SKY/WX    TMP DP  RH WIND       PRES   REMARKS
CLARKSDALE     CLOUDY    72  72 100 E5        30.05R
CLEVELAND      FAIR      75  71  87 E9        30.03R
GREENWOOD      MOSUNNY   75  68  78 E6        30.03R
GREENVILLE     SUNNY     78  67  68 SE9       30.01R
GRENADA        FAIR      73  68  83 CALM      30.05R
OLIVE BRANCH   PTSUNNY   66  66 100 MISG      30.06R
OXFORD         FAIR      70  66  88 S6        30.07R
TUNICA         MOSUNNY   72  72 100 E5        30.04S
$$

MSZ003>006-009-014>017-022>024-029>033-037>039-191600-
NORTHEAST MISSISSIPPI

CITY           SKY/WX    TMP DP  RH WIND       PRES   REMARKS
COLUMBUS AFB   NOT AVBL
CORINTH        FAIR      75  66  73 SE7       30.05R
GOLDN TRIANGLE MOSUNNY   75  66  73 CALM      30.04S
STARKVILLE     FAIR      75  68  78 E3        30.04S
TUPELO           N/A     72  67  84 MISG      30.05R
$$

MSZ040-058-191600-
CENTRAL MISSISSIPPI

CITY           SKY/WX    TMP DP  RH WIND       PRES   REMARKS
JACKSON INTL   MOSUNNY   78  68  71 NE7       30.01R
JACKSON HAWKNS SUNNY     79  67  66 VRB5      30.02R
MERIDIAN KEY   SUNNY     78  68  71 VRB3      30.02R
MERIDIAN NAS   MOSUNNY   78  68  71 E8        30.03R
RAYMOND        FAIR      79  73  83 SE7       30.01R
VICKSBURG      SUNNY     79  67  66 E6        30.01R
$$

MSZ059>079-191600-
SOUTH MISSISSIPPI

CITY           SKY/WX    TMP DP  RH WIND       PRES   REMARKS
BROOKHAVEN     FAIR      77  70  78 CALM      30.03R
COLUMBIA       CLOUDY    75  70  83 CALM      29.99S
HATTIESBURG    SUNNY     77  70  79 E5        30.00S
MCCOMB         SUNNY     77  68  73 E5        30.00S
NATCHEZ        SUNNY     77  70  78 E7        30.00S
PINE BELT      SUNNY     79  66  65 SE9       30.02R
$$

MSZ080>082-191600-
COASTAL MISSISSIPPI

CITY           SKY/WX    TMP DP  RH WIND       PRES   REMARKS
BAY ST LOUIS   MOSUNNY   79  70  73 CALM      29.98R
BILOXI         NOT AVBL
PASCAGOULA     PTSUNNY   77  71  82 E3        29.98R
GULFPORT       PTSUNNY   79  71  76 NE5       29.97R
$$



USA.gov is the U.S. government's official web portal to all federal, state and local government web resources and services.